Overview Statistics Trail Chart Weather Telemetry Raw packets
 

This is the latest recevied weather packets stored in our database for station/object K5DLF-9. If no packets are shown the sender has not sent any weather packets the latest 10 day(s).

<< 1 2 3 4 >>
Time Temp. Humidity Pressure Rain* Wind** Luminosity Snow
1788578931 28.33° C 87% 1011 hPa 0 mm - 0 W/m² -
1788574153 28.33° C 86% 1010.5 hPa 0 mm - 0 W/m² -
1788535154 27.78° C 94% 1012.1 hPa 0 mm - 76 W/m² -
1788532630 27.22° C 94% 1011.8 hPa 0 mm - 79 W/m² -
1788530241 26.67° C - - 0 mm - - -
1788521828 26.11° C 92% 1010.3 hPa 0 mm - 0 W/m² -
1788520030 26.11° C 92% 1010.4 hPa 0 mm - 0 W/m² -
1788519428 26.11° C 92% 1010.3 hPa 0 mm - 0 W/m² -
1788518228 26.11° C 92% 1010.2 hPa 0 mm - 0 W/m² -
1788515829 26.11° C 92% 1010 hPa 0 mm - 0 W/m² -
1788514028 26.67° C 91% 1009.7 hPa 0 mm - 0 W/m² -
1788512231 26.67° C 91% 1009.7 hPa 0 mm - 0 W/m² -
1788508629 26.67° C 91% 1009.8 hPa 0 mm - 0 W/m² -
1788506831 26.67° C 90% 1009.9 hPa 0 mm - 0 W/m² -
1788503230 27.22° C 91% 1010 hPa 0 mm - 0 W/m² -
1788498307 27.78° C 90% 1010.2 hPa 0 mm - 0 W/m² -
1788497705 27.78° C 90% 1010.1 hPa 0 mm - 0 W/m² -
1788496506 27.78° C 90% 1010.2 hPa 0 mm - 0 W/m² -
1788495905 27.78° C 89% 1010.2 hPa 0 mm - 0 W/m² -
1788494108 27.78° C 89% 1010.2 hPa 0 mm - 0 W/m² -
1788492305 27.78° C 89% 1010.3 hPa 0 mm - 0 W/m² -
1788488736 28.33° C 87% 1010.2 hPa 0 mm - 0 W/m² -
1788488135 28.33° C 87% 1010.1 hPa 0 mm - 0 W/m² -
1788485136 28.89° C 86% 1009.5 hPa 0 mm - 0 W/m² -
1788483336 28.89° C 85% 1009.6 hPa 0 mm - 0 W/m² -

* Rain latest hour (hover to see other rain measurements)
** Current wind speed in m/s (hover to see current wind gust speed)